GMT,Max TemperatureF,Mean TemperatureF,Min TemperatureF,Max Dew PointF,MeanDew PointF,Min DewpointF,Max Humidity, Mean Humidity, Min Humidity, Max Sea Level PressureIn, Mean Sea Level PressureIn, Min Sea Level PressureIn, Max VisibilityMiles, Mean VisibilityMiles, Min VisibilityMiles, Max Wind SpeedMPH, Mean Wind SpeedMPH, Max Gust SpeedMPH,PrecipitationIn, CloudCover, Events, WindDirDegrees
2012-12-1,39,34,30,34,30,27,100,81,65,29.95,29.90,29.83,6,6,3,20,9,,0.00,5,,317
2012-12-2,39,31,23,30,26,21,100,83,65,29.98,29.95,29.83,6,6,3,13,7,,0.00,3,Snow,3
2012-12-3,44,38,32,41,35,32,100,90,71,29.80,29.59,29.50,6,4,0,13,8,,0.00,5,Fog-Rain-Snow,187
2012-12-4,41,37,33,36,34,32,93,87,81,29.65,29.53,29.47,6,6,6,9,7,,0.00,5,Rain,319
2012-12-5,37,32,24,34,29,23,100,83,70,29.98,29.81,29.65,6,6,3,22,10,,0.00,3,Rain,329
2012-12-6,37,29,21,36,29,19,100,91,81,29.98,29.69,29.27,6,6,1,23,8,,0.00,5,Rain,168
2012-12-7,41,38,35,39,35,30,100,85,70,30.04,29.61,29.27,6,6,4,23,16,,0.00,5,Rain-Snow,328
2012-12-8,48,40,32,43,36,28,93,86,76,30.21,30.14,30.04,6,6,6,17,7,,0.00,6,Rain,266
2012-12-9,46,42,39,41,36,32,81,73,61,30.04,29.95,29.89,6,6,6,22,17,33,0.00,4,,299
2012-12-10,41,37,33,36,34,32,100,88,75,30.42,30.25,30.04,6,6,6,18,13,,0.00,4,Rain-Snow,333
2012-12-11,37,30,23,34,30,23,100,94,87,30.45,30.39,30.27,6,4,0,8,5,,0.00,4,Fog,345
2012-12-12,30,24,19,30,25,18,100,97,93,30.27,30.05,29.86,4,1,0,8,4,,0.00,6,Fog,129
2012-12-13,28,26,23,28,27,21,100,99,93,29.83,29.72,29.56,2,0,0,8,3,,0.00,8,Fog-Snow,125
2012-12-14,46,33,24,41,36,25,100,98,81,29.50,29.03,28.65,6,3,1,26,9,,0.00,7,Rain-Snow,140
2012-12-15,48,42,35,45,41,34,93,89,81,29.33,29.10,28.80,6,6,1,18,12,,0.00,4,Rain,191
2012-12-16,41,36,32,39,36,32,100,99,93,29.44,29.40,29.33,4,2,0,12,9,,0.00,3,Fog-Rain,131
2012-12-17,44,42,39,45,40,39,100,100,100,29.56,29.43,29.36,6,2,1,10,8,,0.00,6,Fog-Rain,135
2012-12-18,44,42,39,43,42,39,100,97,93,30.12,29.97,29.68,6,5,3,14,7,,0.00,6,Rain,335
2012-12-19,42,40,39,41,40,39,100,93,87,30.12,30.02,29.89,6,5,2,22,14,,0.00,6,Rain,129
2012-12-20,42,42,41,41,41,39,100,95,93,29.86,29.65,29.56,6,4,1,25,21,,0.00,6,Rain,117
2012-12-21,42,40,37,43,41,37,100,96,93,29.89,29.74,29.56,6,5,0,9,6,,0.00,7,Fog-Rain,23
2012-12-22,46,40,37,46,43,37,100,100,100,29.86,29.56,29.33,6,2,0,18,10,,0.00,7,Fog-Rain,126
2012-12-23,55,50,46,52,42,39,100,79,66,29.59,29.41,29.24,6,6,1,32,17,47,0.00,5,Rain,234
2012-12-24,46,40,35,43,40,36,100,97,76,29.56,29.39,29.27,6,3,1,13,8,,0.00,6,Rain,155
2012-12-25,44,38,33,45,39,34,100,95,76,29.44,29.26,29.18,6,4,1,12,8,,0.00,4,Rain,184
2012-12-26,46,42,39,41,39,36,100,86,76,29.50,29.42,29.30,6,6,0,22,11,30,0.00,4,Rain,223
2012-12-27,44,38,32,41,37,32,100,88,76,30.04,29.64,29.33,6,6,4,17,12,,0.00,6,Rain,320
2012-12-28,53,43,33,50,44,34,100,93,77,30.04,29.74,29.53,6,5,2,23,14,,0.00,6,Rain,172
2012-12-29,53,46,39,50,43,37,100,89,81,29.50,29.37,29.30,6,6,2,25,15,38,0.00,6,Rain,204
2012-12-30,51,44,37,46,39,32,93,85,75,29.56,29.51,29.42,6,6,6,24,15,36,0.00,4,Rain,234
2012-12-31,51,46,39,48,43,34,94,83,76,29.47,29.34,29.24,6,6,6,25,19,36,0.00,4,Rain,229